Regional Weather Roundup
Issued by NWS Wilmington, NC

Home | Current Version | Previous Version | Text Only | Print | Product List | Glossary On
Versions: 1 2 3 4 5 6 7 8 9 10 11 12 13 14 15 16 17 18 19 20 21 22 23 24 25 26 27
000
ASUS42 KILM 062012
RWRILM
RWRILM
REGIONAL HOURLY WEATHER ROUNDUP
NATIONAL WEATHER SERVICE WILMINGTON NC
300 PM EST TUE DEC 06 2016

NOTE: "FAIR" INDICATES FEW OR NO CLOUDS BELOW 12,000 FEET WITH NO
SIGNIFICANT WEATHER AND/OR OBSTRUCTIONS TO VISIBILITY.

...............WFO WILMINGTON COUNTY WARNING AREA...............

......COASTAL NC AND SC COUNTIES......

CITY           SKY/WX    TMP DP  RH WIND       PRES   REMARKS
WILMINGTON     CLOUDY    66  66 100 CALM      29.62F
N MYRTLE BEACH CLOUDY    63  62  97 SW5       29.64F FOG
MYRTLE BEACH   CLOUDY    64  61  88 SW10      29.66F FOG

......INLAND NC AND SC COUNTIES.......

CITY           SKY/WX    TMP DP  RH WIND       PRES   REMARKS
LUMBERTON      CLOUDY    52  52 100 CALM      29.65F FOG
ELIZABETHTOWN  CLOUDY    55  55 100 NW5       29.65S FOG
WHITEVILLE     CLOUDY    60  58  95 CALM      29.65R
FLORENCE       FOG       52  52 100 NW7       29.68R VSB 1
DARLINGTON     LGT RAIN  52  50  93 NW7       29.71R FOG
KINGSTREE      NOT AVBL
HARTSVILLE     NOT AVBL
BENNETTSVILLE  NOT AVBL
CONWAY         NOT AVBL
GEORGETOWN     NOT AVBL
MARION         NOT AVBL

....................REST OF NORTH CAROLINA......................

.........EASTERN NC.........

CITY           SKY/WX    TMP DP  RH WIND       PRES   REMARKS
CAPE HATTERAS  CLOUDY    65  63  93 E17G26    29.62F FOG
JACKSONVILLE   CLOUDY    68  65  90 S8        29.62R
MOREHEAD CITY  CLOUDY    68  66  93 E12G21    29.62R
KENANSVILLE    FOG       54  54 100 CALM      29.64S VSB 3/4
NEW BERN       MOSUNNY   67  63  87 SE12G23   29.60F
ELIZABETH CITY CLOUDY    59  58  96 E14G25    29.64F

.........CENTRAL NC.........

CITY           SKY/WX    TMP DP  RH WIND       PRES   REMARKS
RALEIGH DURHAM LGT RAIN  48  46  93 NE3       29.68F VSB 1
ROCKY MOUNT    FOG       50  50 100 N5        29.64F VSB 1
ROANOKE RAPIDS NOT AVBL
FAYETTEVILLE   CLOUDY    52  52 100 NE5       29.63F FOG
HOFFMAN        NOT AVBL

.........WESTERN NC.........

CITY           SKY/WX    TMP DP  RH WIND       PRES   REMARKS
CHARLOTTE      LGT RAIN  46  43  89 N8        29.77R
GREENSBORO     RAIN      43  42  97 N8        29.75R
HICKORY        NOT AVBL
BOONE          NOT AVBL
ASHEVILLE      NOT AVBL

.....................REST OF SOUTH CAROLINA.....................

.........EASTERN SC.........

CITY           SKY/WX    TMP DP  RH WIND       PRES   REMARKS
CHARLESTON     PTSUNNY   71  68  90 SW9       29.67R
BEAUFORT MCAS  PTSUNNY   76  68  76 SW8       29.67S
HILTON HEAD    NOT AVBL

.........CENTRAL SC.........

CITY           SKY/WX    TMP DP  RH WIND       PRES   REMARKS
COLUMBIA       CLOUDY    52  49  89 NW7       29.73R
ORANGEBURG     CLOUDY    58  57  97 NW6       29.70R FOG
SUMTER SHAW    NOT AVBL

.........WESTERN SC.........

CITY           SKY/WX    TMP DP  RH WIND       PRES   REMARKS
GREENVILLE     NOT AVBL
ROCK HILL      LGT RAIN  46  44  93 N7        29.76R FOG
ANDERSON       CLOUDY    48  44  86 NE7       29.77R
CLEMSON        NOT AVBL
GREENWOOD      CLOUDY    47  43  86 N8        29.77S


...................COASTAL AND OFFSHORE REPORTS..................

................LOCAL PIERS AND NC RESERVE................


STATION/POSITION TIME  SKY/WX   TEMP    WIND        PRES    VSBY
                                AIR SEA DIR/SP/G
                 (UTC)          (F)     (DEG/KT/KT) (MB)    (MI)
JOHNY MRCER PIER 1942            64 62   20/  2/  3 1001.9F
NC RESRV MASNBRO 1845            63      40/  2     1003.0
OCEAN CREST PIER NOT AVBL
SPRINGMAID  PIER NOT AVBL


................COASTAL AND OFFSHORE BUOYS................


STATION/POSITION TIME  SKY/WX   TEMP    WIND        PRES    VSBY
                                AIR SEA DIR/SP/G
                 (UTC)          (F)     (DEG/KT/KT) (MB)    (MI)
DIMNDSHOAL 41025 1950            70 76   80/ 29/ 37 1001.7F
WVE H/P(F/S)= 10/ 8 SWL H/P/D(F/S/D)=  2/110/11

CAPE LOOKOUT     NOT AVBL
ONSLOW BAY 41036 NOT AVBL
ONSLOW BAY 41064 1908            63 72  240/ 10/ 16 1003.2
ONSLOW BAY 41159 NOT AVBL
5SE WRITBC 41038 1908            61 62  240/  4/  8 1003.1
MASNBO INL 41110 1929               62                N/A
WVE H/P(F/S)=  5/ 7

WILM HARBR 41108 1956               62                N/A
WVE H/P(F/S)=  5/ 7

27SE WRITB 41037 1908            68 69  250/ 14/ 21 1003.3
FRYING PAN 41013 1950            74 74  220/ 19/ 25 1003.6F
WVE H/P(F/S)=  7/ 7

SUNST NRSH 41024 1908            62 60  290/  2/  6 1003.4
CAPRS NRSH 41029 1908            65 62  240/ 12/ 16 1004.2F
EDISTO     41004 1950            75 74  220/ 23/ 29 1003.4F
WVE H/P(F/S)=  7/ 8 SWL H/P/D(F/S/D)=  2/160/13



..........OFFSHORE BUOYS BEYOND 100 NM OFFSHORE...........
.....IN A TRIANGLE---HAT TO BERMUDA TO BAHAMAS TO HAT.....


STATION/POSITION TIME  SKY/WX   TEMP    WIND        PRES    VSBY
                                AIR SEA DIR/SP/G
                 (UTC)          (F)     (DEG/KT/KT) (MB)    (MI)
150E HAT   41001 NOT AVBL
W BERMUDA  41048 1950            73 73  220/ 16/ 19 1014.5F
WVE H/P(F/S)=  7/ 7 SWL H/P/D(F/S/D)=  3/ 60/12

ATLANTIC S 41049 1950            72 76  260/  8/ 10 1019.3F
WVE H/P(F/S)=  7/10 SWL H/P/D(F/S/D)=  7/350/10

E BAHAMAS  41046 1950            77 78  140/  8/ 10 1018.0F
WVE H/P(F/S)=  6/11 SWL H/P/D(F/S/D)=  5/11

NE BAHAMAS 41047 1950            77 78  190/ 16/ 17 1016.1F
WVE H/P(F/S)=  4/ 4 SWL H/P/D(F/S/D)=  2/ 60/ 9

120E CANVRL41010 NOT AVBL

END




USA.gov is the U.S. government's official web portal to all federal, state and local government web resources and services.